C/2017 M3 ( PanSTARRS )

Japanese version
Home page
Updated on October 8, 2017

---------------------------------------------------------------------

* Profile

Discovery Date June 20, 2017
Magnitude 21.1 mag
Discoverer Pan-STARRS 1 telescope (Haleakala)

* Orbital Elements

Epoch 2017 May 7.0 TT = JDT 2457880.5
T 2017 Apr. 28.09803 TT                                 MPCW
q   4.6587754            (2000.0)            P               Q
z  +0.0043391      Peri.  110.29313     -0.36897613     -0.92179566
 +/-0.0006251      Node     6.99830     -0.21812529     -0.03852632
e   0.9797849      Incl.   77.49861     +0.90348103     -0.38575703
From 27 observations 2017 June 20-July 19, mean residual 0".3.

* Magnitudes Graph

        m1 = 10.5 + 5 log d + 10.0 log r

---------------------------------------------------------------------

The orbital elements are published on M.P.E.C. 2017-T14.
The magnitudes graphs are made with Comet for Windows.

---------------------------------------------------------------------

Copyright(C) Seiichi Yoshida (comet@aerith.net). All rights reserved.